Weather History for Bennettsville, SC

Change the Weather History Date:

Thursday, August 29, 2013

  Actual Average (KFLO) Record (KFLO)
Temperature  
Mean Temperature 84 °F 79 °F  
Max Temperature 95 °F 88 °F 101 °F (1998)
Min Temperature 73 °F 69 °F 57 °F (1968)
Degree Days  
Heating Degree Days 0 0  
Month to date heating degree days 0  
Since 1 June heating degree days 1  
Since 1 July heating degree days 0  
Cooling Degree Days 19 14  
Month to date cooling degree days 438  
Year to date cooling degree days 1644  
Since 1 June cooling degree days 1337  
Growing Degree Days 34 (Base 50)    
Moisture  
Dew Point 71 °F    
Average Humidity 73    
Maximum Humidity 94    
Minimum Humidity 47    
Precipitation  
Precipitation 0.11 in 0.16 in 4.22 in (2004)
Month to date precipitation 4.94  
Year to date precipitation 30.18  
Sea Level Pressure  
Sea Level Pressure 29.91 in    
Wind  
Wind Speed 4 mph (SSW)    
Max Wind Speed 10 mph    
Max Gust Speed -    
Visibility 7 miles    
Events Rain , Thunderstorm    
T = Trace of Precipitation, MM = Missing Value Source: NWS Daily Summary

Daily Weather History Graph

Daily Weather History Graph

Search for Another Location

Airport:

Trip Planner

Search our weather history database for the weather conditions in past years. The results will help you decide how hot, cold, wet, or windy it might be!

Date:

Astronomy

Aug. 29, 2013 Rise Set
Actual Time 6:49 AM EDT 7:48 PM EDT
Civil Twilight 6:24 AM EDT 8:14 PM EDT
Nautical Twilight 5:53 AM EDT 8:45 PM EDT
Astronomical Twilight 5:21 AM EDT 9:16 PM EDT
Moon 12:47 AM EDT (8/29) 3:08 PM EDT (8/29)
Length of Visible Light 13h 50m
Length of Day
12h 58m
Last Quarter, 38% of the Moon is Illuminated
Aug 29
Last Quarter
Sep 5
New
Sep 12
First Quarter
Sep 19
Full
Sep 26
Last Quarter

Hourly Weather History & Observations

Time (EDT) Temp. Heat Index Dew Point Humidity Pressure Visibility Wind Dir Wind Speed Gust Speed Precip Events Conditions
12:15 AM 77.0 °F - 71.6 °F 83% 29.92 in 5.0 mi SSW 4.6 mph - N/A   Haze
12:35 AM 77.0 °F - 71.6 °F 83% 29.92 in 5.0 mi SSW 3.5 mph - N/A   Haze
12:55 AM 77.0 °F - 71.6 °F 83% 29.92 in 5.0 mi SSW 3.5 mph - N/A   Haze
1:15 AM 77.0 °F - 71.6 °F 83% 29.92 in 5.0 mi SSW 3.5 mph - N/A   Haze
1:35 AM 77.0 °F - 71.6 °F 83% 29.91 in 5.0 mi SSW 4.6 mph - N/A   Haze
1:55 AM 77.0 °F - 71.6 °F 83% 29.90 in 5.0 mi SSW 4.6 mph - N/A   Haze
2:15 AM 77.0 °F - 69.8 °F 78% 29.90 in 5.0 mi SSW 4.6 mph - N/A   Haze
2:35 AM 75.2 °F - 69.8 °F 83% 29.90 in 5.0 mi SW 3.5 mph - N/A   Haze
2:55 AM 75.2 °F - 69.8 °F 83% 29.91 in 7.0 mi Calm Calm - N/A   Clear
3:15 AM 75.2 °F - 69.8 °F 83% 29.90 in 7.0 mi SSW 4.6 mph - N/A   Clear
3:35 AM 73.4 °F - 69.8 °F 88% 29.90 in 5.0 mi SSW 3.5 mph - N/A   Haze
3:55 AM 73.4 °F - 69.8 °F 88% 29.90 in 7.0 mi Calm Calm - N/A   Clear
4:15 AM 75.2 °F - 69.8 °F 83% 29.90 in 5.0 mi South 3.5 mph - N/A   Haze
4:35 AM 73.4 °F - 69.8 °F 88% 29.90 in 5.0 mi SSW 3.5 mph - N/A   Haze
4:55 AM 73.4 °F - 68.0 °F 83% 29.89 in 5.0 mi SSW 3.5 mph - N/A   Haze
5:15 AM 73.4 °F - 68.0 °F 83% 29.90 in 5.0 mi SSW 3.5 mph - N/A   Haze
5:35 AM 73.4 °F - 68.0 °F 83% 29.90 in 5.0 mi SSW 3.5 mph - N/A   Haze
5:55 AM 73.4 °F - 66.2 °F 78% 29.90 in 7.0 mi SSW 3.5 mph - N/A   Mostly Cloudy
6:15 AM 73.4 °F - 66.2 °F 78% 29.90 in 7.0 mi Calm Calm - N/A   Overcast
6:35 AM 73.4 °F - 66.2 °F 78% 29.90 in 7.0 mi Calm Calm - N/A   Mostly Cloudy
6:55 AM 73.4 °F - 66.2 °F 78% 29.91 in 7.0 mi SW 3.5 mph - N/A   Mostly Cloudy
7:15 AM 73.4 °F - 66.2 °F 78% 29.91 in 5.0 mi SSW 5.8 mph - N/A   Haze
7:35 AM 73.4 °F - 68.0 °F 83% 29.91 in 3.0 mi SSW 3.5 mph - N/A Rain Light Rain
7:55 AM 73.4 °F - 68.0 °F 83% 29.92 in 3.0 mi SW 3.5 mph - N/A Rain Light Rain
8:15 AM 73.4 °F - 68.0 °F 83% 29.92 in 4.0 mi Calm Calm - N/A   Haze
8:35 AM 73.4 °F - 68.0 °F 83% 29.92 in 3.0 mi Calm Calm - 0.01 in Rain Light Rain
8:55 AM 75.2 °F - 68.0 °F 78% 29.93 in 4.0 mi SSW 3.5 mph - 0.01 in   Haze
9:15 AM 75.2 °F - 69.8 °F 83% 29.93 in 4.0 mi Calm Calm - N/A   Haze
9:35 AM 77.0 °F - 69.8 °F 78% 29.93 in 4.0 mi Calm Calm - N/A   Haze
9:55 AM 78.8 °F - 69.8 °F 74% 29.93 in 4.0 mi Calm Calm - N/A   Haze
10:15 AM 80.6 °F 83.9 °F 69.8 °F 70% 29.93 in 5.0 mi West 4.6 mph - N/A   Haze
10:35 AM 80.6 °F 84.6 °F 71.6 °F 74% 29.93 in 7.0 mi SW 3.5 mph - N/A   Mostly Cloudy
10:55 AM 82.4 °F 86.3 °F 69.8 °F 66% 29.93 in 7.0 mi SW 4.6 mph - N/A   Scattered Clouds
11:15 AM 86.0 °F 91.8 °F 71.6 °F 62% 29.92 in 7.0 mi WNW 4.6 mph - N/A   Scattered Clouds
11:35 AM 87.8 °F 93.8 °F 71.6 °F 58% 29.92 in 7.0 mi WNW 3.5 mph - N/A   Clear
11:55 AM 87.8 °F 95.6 °F 73.4 °F 62% 29.92 in 10.0 mi NW 6.9 mph - N/A   Scattered Clouds
12:15 PM 89.6 °F 96.2 °F 71.6 °F 55% 29.91 in 10.0 mi NW 9.2 mph - N/A   Mostly Cloudy
12:35 PM 89.6 °F 96.2 °F 71.6 °F 55% 29.90 in 10.0 mi NW 6.9 mph - N/A   Mostly Cloudy
1:15 PM 93.2 °F 102.4 °F 73.4 °F 52% 29.90 in 10.0 mi North 3.5 mph - N/A   Scattered Clouds
1:55 PM 91.4 °F 98.4 °F 71.6 °F 52% 29.90 in 10.0 mi NNW 6.9 mph - N/A   Overcast
2:15 PM 93.2 °F 100.5 °F 71.6 °F 49% 29.89 in 10.0 mi Calm Calm - N/A   Scattered Clouds
2:35 PM 95.0 °F 103.2 °F 71.6 °F 47% 29.89 in 10.0 mi NNE 4.6 mph - N/A   Mostly Cloudy
2:55 PM 95.0 °F 104.5 °F 73.4 °F 49% 29.88 in 10.0 mi NW 5.8 mph - N/A   Overcast
3:15 PM 95.0 °F 103.2 °F 71.6 °F 47% 29.88 in 10.0 mi NNW 5.8 mph - N/A   Mostly Cloudy
3:35 PM 89.6 °F 98.2 °F 73.4 °F 59% 29.88 in 3.0 mi Calm Calm - 0.10 in Rain Heavy Rain
3:55 PM 89.6 °F 102.2 °F 77.0 °F 66% 29.88 in 10.0 mi North 4.6 mph - 0.10 in   Mostly Cloudy
4:15 PM 89.6 °F 99.8 °F 75.2 °F 62% 29.87 in 10.0 mi NNW 9.2 mph - N/A   Scattered Clouds
4:35 PM 89.6 °F 99.8 °F 75.2 °F 62% 29.88 in 10.0 mi East 6.9 mph - N/A   Scattered Clouds
4:55 PM 89.6 °F 98.2 °F 73.4 °F 59% 29.88 in 10.0 mi East 8.1 mph - N/A   Mostly Cloudy
5:15 PM 87.8 °F 97.6 °F 75.2 °F 66% 29.88 in 10.0 mi NNE 10.4 mph - N/A   Mostly Cloudy
5:35 PM 87.8 °F 95.6 °F 73.4 °F 62% 29.89 in 10.0 mi NE 10.4 mph - N/A Thunderstorm Mostly Cloudy
5:55 PM 89.6 °F 98.2 °F 73.4 °F 59% 29.89 in 10.0 mi NE 10.4 mph - N/A   Scattered Clouds
6:15 PM 89.6 °F 98.2 °F 73.4 °F 59% 29.90 in 10.0 mi ENE 9.2 mph - N/A   Clear
6:35 PM 87.8 °F 93.8 °F 71.6 °F 58% 29.89 in 10.0 mi ENE 9.2 mph - N/A   Clear
6:55 PM 87.8 °F 93.8 °F 71.6 °F 58% 29.90 in 10.0 mi NE 6.9 mph - N/A   Clear
7:15 PM 86.0 °F 91.8 °F 71.6 °F 62% 29.89 in 10.0 mi NE 5.8 mph - N/A   Clear
7:35 PM 82.4 °F 88.2 °F 73.4 °F 74% 29.90 in 10.0 mi Calm Calm - N/A   Clear
7:55 PM 80.6 °F 86.2 °F 75.2 °F 84% 29.91 in 7.0 mi NNE 4.6 mph - N/A   Clear
8:15 PM 80.6 °F 85.4 °F 73.4 °F 79% 29.93 in 3.0 mi SSE 3.5 mph - N/A   Haze
8:35 PM 80.6 °F 87.1 °F 77.0 °F 89% 29.93 in 7.0 mi Calm Calm - N/A   Clear
8:55 PM 78.8 °F - 77.0 °F 94% 29.94 in 7.0 mi Calm Calm - N/A   Clear
9:15 PM 78.8 °F - 73.4 °F 83% 29.95 in 7.0 mi Calm Calm - N/A   Clear
9:35 PM 78.8 °F - 75.2 °F 89% 29.96 in 5.0 mi Calm Calm - N/A   Mostly Cloudy
9:55 PM 78.8 °F - 75.2 °F 89% 29.96 in 5.0 mi Calm Calm - N/A   Overcast
10:15 PM 78.8 °F - 71.6 °F 78% 29.97 in 7.0 mi East 5.8 mph - N/A   Mostly Cloudy
10:35 PM 80.6 °F 83.9 °F 69.8 °F 70% 29.97 in 7.0 mi ENE 9.2 mph - N/A   Scattered Clouds
10:55 PM 80.6 °F 83.9 °F 69.8 °F 70% 29.97 in 7.0 mi ENE 9.2 mph - N/A   Scattered Clouds
11:15 PM 78.8 °F - 69.8 °F 74% 29.97 in 7.0 mi ENE 8.1 mph - N/A   Scattered Clouds
11:35 PM 78.8 °F - 69.8 °F 74% 29.97 in 10.0 mi ENE 6.9 mph - N/A   Clear
11:55 PM 78.8 °F - 69.8 °F 74% 29.97 in 10.0 mi East 10.4 mph - N/A   Clear